THORAD DELTA 1 DEB, 42595

Orbit data source: Space-Track

THORAD DELTA 1 DEB, 42595 is space debris in SSO originally from a launch on Fri, 15 Nov 1974 UTC launched from the Air Force Western Test Range (AFWTR). Debris objects in space refer to the collection of defunct objects orbiting the Earth. Examples of debris include non-operational satellites, rocket bodies, and fragments generated from explosions, collisions, or faulty payload assembly.

Loading next visibility...
Identifier
42595, 1974-089FL
Orbit
SSO
Country
Flag of USUS
Related business
Manufacturer
Unknown
Mission
Spacecraft
Bus & Motor
Unknown
Mass
Unknown
Launch date (UTC)
1974-11-15 (51 years ago)
Launch vehicle
Unknown
Launch site
Air Force Western Test Range (AFWTR)
Object type
Payload
Rocket body
Debris
Shape & HBR
Unknown shape, 0.1 m
Radar Cross Section
Small (<0.1 m²)

Expand to show TLE details & history
Last TLE update: 17 hours ago

TLE from 17 hours ago
0 THORAD DELTA 1 DEB
1 42595U 74089FL  26071.89300424  .00000083  00000-0  86596-3 0  9997
2 42595 101.6547  45.8381 0040471 133.8609 226.5815 12.46712768559963
Epoch: 2026-03-12T21:25Z
TLE epoch observation values (Epoch: 2026-03-12T21:25:55.566Z)
Latitude
0.00002°
Longitude
-86.17979°
Altitude
1,502.772 km
Speed
7.103 km/s
True Right ascension
03h 03m 21s
True Declination
0° 00' 00"
Sunlit
Object was in daylight at epoch
Visualization orbit readout
Latitude
Unknown
Longitude
Unknown
Altitude
Unknown
Speed
Unknown
Apparent Right ascension
Unknown
Apparent Declination
Unknown
Sunlit
N/A
Visualization observer readout
Local Sidereal Time
18:39:31
Azimuth
Unknown
Elevation
Unknown
Doppler factor
Unknown
Orbital elements
Apogee altitude
1,507.606 km
Perigee altitude
1,444.035 km
Semi-major axis
7,853.957 km
Eccentricity
0.00405
Inclination
101.6547°
RAAN
45.8381°
Arg. of periapsis
133.8609°
True anomaly
226.24581°
Mean anomaly
226.5815°
Eccentric anomaly
226.41354°
Mean motion
3.11825 °/min
Orbital period
115.45 mins
BSTAR
0.00086596
Loading maneuver chart data...
Computing Atmospheric mass density...

Documentation

Showing up to 5 results
|